Tiempo atmosférico en la estación meteorológica de Valdemorillo, Madrid (884 m.)



Fecha
DESCASC
Temp. máxima en grados centígrados (hora)
DESCASC
Temp. mínima en grados centígrados (hora)
DESCASC
Temp. media en grados centígrados
DESCASC
Racha de viento máxima en m/sg (hora)
DESCASC
Velocidad máxima media en intervalos de 10 minutos(hora)
DESCASC
Precipitaciones diarias en mm
DESCASC
Precipitaciones de 00:00 a 06:00 en mm
DESCASC
Precipitaciones de 06:00 a 12:00 en mm
DESCASC
Precipitaciones de 12:00 a 18:00 en mm
DESCASC
Precipitaciones de 18:00 a 24:00 en mm
DESCASC
27-01-2020 6.9 (17:30) -0.2 (08:10) 3.4 8.06 (18:40) 4.72 (18:10) 0.2 0 0 0.2 0
26-01-2020 10 (14:10) 2.6 (23:30) 6.3 6.39 (15:30) 4.17 (15:40) 0.2 0.2 0 0 0
25-01-2020 7 (15:00) 4.6 (00:00) 5.8 5.56 (08:20) 2.78 (09:20) 11 5.2 2.2 3.4 0.2
24-01-2020 6.1 (17:20) 4.8 (00:00) 5.5 5.83 (04:40) 2.78 (04:40) 12.4 0.2 8 4.2 0
23-01-2020 9.4 (15:10) 2.8 (00:00) 6.1 6.94 (09:50) 3.61 (10:50) 0.4 0 0 0 0.4
22-01-2020 8.5 (16:40) 3.4 (00:00) 6 12.5 (03:10) 6.11 (01:20) 1.6 0.2 1.2 0 0.2
21-01-2020 6.9 (15:10) 3.3 (00:00) 5.1 17.78 (00:50) 10.28 (00:50) 4 0.2 0.8 2.8 0.2
20-01-2020 6.3 (12:00) 0.5 (00:00) 3.4 18.06 (22:20) 10.28 (18:00) 0 0 0 0 0
19-01-2020 8.6 (16:20) 2.1 (00:00) 5.4 19.44 (16:00) 9.17 (16:10) 0 0 0 0 0
18-01-2020 7.1 (21:30) 3.7 (00:00) 5.4 13.89 (23:59) 6.94 (23:59) 3.8 0 2.4 0.8 0.6
17-01-2020 12 (15:40) 3.9 (00:00) 8 9.44 (01:40) 5 (01:40) 0 0 0 0 0
16-01-2020 11.2 (16:00) 5.7 (00:00) 8.4 6.67 (15:40) 4.17 (16:00) 0.2 0 0 0.2 0
15-01-2020 6.3 (17:20) 3 (00:00) 4.7 3.33 (05:00) 1.94 (05:00) 0.2 0.2 0 0 0
14-01-2020 8.1 (16:20) -2.8 (-00:0) 2.7 4.17 (14:40) 2.22 (07:50) 0 0 0 0 0
13-01-2020 7.8 (15:50) -1.7 (-00:0) 3.1 3.89 (15:30) 2.22 (15:30) 0 0 0 0 0
12-01-2020 11 (16:10) -2.1 (-00:0) 4.5 3.33 (04:20) 2.22 (04:10) 0 0 0 0 0
11-01-2020 11.1 (15:10) -1.2 (-00:0) 5 4.44 (12:20) 1.94 (12:50) 0 0 0 0 0
10-01-2020 10.7 (16:10) 3.5 (00:00) 7.1 11.39 (05:10) 6.67 (05:20) 0 0 0 0 0
09-01-2020 12.5 (15:00) 2.6 (00:00) 7.5 10.28 (20:30) 5.56 (23:59) 0 0 0 0 0
08-01-2020 15.1 (16:20) 2.9 (00:00) 9 4.17 (01:40) 3.06 (02:00) 0 0 0 0 0
07-01-2020 14.6 (17:00) 1.8 (00:00) 8.2 3.61 (05:30) 2.22 (00:10) 0 0 0 0 0
06-01-2020 13.3 (16:20) 1.5 (00:00) 7.4 3.33 (15:40) 2.22 (02:10) 0 0 0 0 0
05-01-2020 14.3 (16:20) 0.2 (00:00) 7.3 2.78 (17:20) 1.94 (02:40) 0 0 0 0 0
04-01-2020 10.9 (16:50) 0 (00:00) 5.4 4.72 (20:50) 2.78 (13:00) 0 0 0 0 0
03-01-2020 7.5 (16:30) 0.7 (00:00) 4.1 4.44 (21:30) 2.78 (21:20) 0 0 0 0 0
02-01-2020 12 (16:20) 1.1 (00:00) 6.6 2.78 (12:30) 1.67 (02:40) 0 0 0 0 0
01-01-2020 13.9 (15:50) 1 (00:00) 7.4 3.33 (14:30) 1.94 (08:00) 0 0 0 0 0
31-12-2019 13.9 (15:20) 1.2 (00:00) 7.5 2.78 (14:00) 1.67 (00:40) 0 0 0 0 0
30-12-2019 -- (--) -- (--) -- -- (--) -- (--) -- 0 0 0 --

Gráficas

Temp. máximas Temp. mínimas Temp. medias Precipitaciones Rachas de viento máximas Velocidades máximas media en intervalos de 10 minutos

Datos horarios

Fecha y hora oficial Temperatura (ºC) Velocidad del viento (km/h) Dirección del viento Racha (km/h) Dirección de racha Precipitación (mm) Presión (hPa) Tendencia (hPa) Humedad (%)
2020-01-28 23:00:00 9.1 7 Sudoeste 18 Oeste 0 -- -- 99
2020-01-28 22:00:00 8.9 10 Sudoeste 16 Oeste 0 -- -- 98
2020-01-28 21:00:00 9 8 Oeste 14 Sudoeste 0 -- -- 98
2020-01-28 20:00:00 8.9 9 Sudoeste 15 Sudoeste 0 -- -- 97
2020-01-28 19:00:00 9.3 8 Sudoeste 20 Sudoeste 0 -- -- 95
2020-01-28 18:00:00 10 10 Sudoeste 22 Sudoeste 0 -- -- 93
2020-01-28 17:00:00 10.7 13 Oeste 26 Oeste 0 -- -- 92
2020-01-28 16:00:00 10.7 17 Sudoeste 31 Sudoeste 0 -- -- 92
2020-01-28 15:00:00 11.2 18 Sudoeste 32 Sudoeste 0 -- -- 89
2020-01-28 14:00:00 12.2 17 Sudoeste 31 Sudoeste 0 -- -- 84
2020-01-28 13:00:00 11.1 16 Oeste 32 Sudoeste 0 -- -- 99
2020-01-28 12:00:00 9.5 14 Sudoeste 26 Sudoeste 0 -- -- 100
2020-01-28 11:00:00 8.4 13 Sudoeste 20 Sudoeste 0 -- -- 100
2020-01-28 10:00:00 7.6 10 Sudoeste 17 Sudoeste 0 -- -- 100
2020-01-28 09:00:00 6.4 7 Oeste 17 Oeste 0 -- -- 100
2020-01-28 08:00:00 6.9 11 Sudoeste 20 Sudoeste 0 -- -- 100
2020-01-28 07:00:00 7 8 Sudoeste 22 Sudoeste 0 -- -- 100
2020-01-28 06:00:00 7.2 9 Oeste 23 Oeste 0 -- -- 100
2020-01-28 05:00:00 7 11 Sudoeste 24 Sudoeste 0 -- -- 100
2020-01-28 04:00:00 6.8 13 Sudoeste 22 Sudoeste 0 -- -- 100
2020-01-28 03:00:00 6.9 13 Sudoeste 24 Sudoeste 0 -- -- 99
2020-01-28 02:00:00 6.9 11 Sudoeste 29 Oeste 0 -- -- 99
2020-01-28 01:00:00 6.8 12 Oeste 21 Oeste 0 -- -- 99
2020-01-28 00:00:00 6.5 10 Sudoeste 23 Oeste 0 -- -- 99
2020-01-27 23:00:00 6.5 10 Sudoeste 17 Sudoeste 0 -- -- 97
2020-01-27 22:00:00 6.4 7 Sudoeste 24 Oeste 0 -- -- 96
2020-01-27 21:00:00 6.5 9 Oeste 21 Oeste 0 -- -- 95
2020-01-27 20:00:00 6.3 10 Oeste 23 Oeste 0 -- -- 93
2020-01-27 19:00:00 6.5 12 Oeste 29 Sudoeste 0 -- -- 91
2020-01-27 18:00:00 6.9 15 Sudoeste 27 Sudoeste 0 -- -- 87
2020-01-27 17:00:00 6.7 14 Sudoeste 27 Sudoeste 0 -- -- 98
2020-01-27 16:00:00 5.6 10 Sudoeste 20 Sudoeste 0 -- -- 100
2020-01-27 15:00:00 4.7 5 Sudoeste 12 Sudoeste 0 -- -- 99
2020-01-27 14:00:00 4.1 2 Sudoeste 7 Sudoeste 0 -- -- 99
2020-01-27 13:00:00 3.5 0 Calma 6 Sudeste 0.2 -- -- 99
2020-01-27 12:00:00 2.9 3 Este 6 Este 0 -- -- 99
2020-01-27 11:00:00 2.1 3 Nordeste 6 Este 0 -- -- 99
2020-01-27 10:00:00 1.2 3 Este 11 Este 0 -- -- 99
2020-01-27 09:00:00 0.5 6 Este 9 Este 0 -- -- 98
2020-01-27 08:00:00 -0.1 4 Este 9 Este 0 -- -- 96
2020-01-27 07:00:00 1.3 4 Sur 9 Sudoeste 0 -- -- 96
2020-01-27 06:00:00 0.8 2 Sudeste 5 Sudeste 0 -- -- 95
2020-01-27 05:00:00 1.7 0 Calma 8 Sudoeste 0 -- -- 93
2020-01-27 04:00:00 2.4 6 Sudoeste 8 Sudoeste 0 -- -- 90
2020-01-27 03:00:00 2.4 0 Calma 6 Oeste 0 -- -- 86
2020-01-27 02:00:00 2.3 2 Oeste 8 Sudoeste 0 -- -- 92
2020-01-27 01:00:00 2.6 4 Sudoeste 8 Sudoeste 0 -- -- 92
2020-01-27 00:00:00 2.6 2 Sudoeste 6 Sudoeste 0 -- -- 90
2020-01-26 23:00:00 3.1 3 Sudoeste 6 Sur 0 -- -- 89
2020-01-26 22:00:00 3.1 0 Calma 4 Sudoeste 0 -- -- 92
2020-01-26 21:00:00 3.7 2 Sudoeste 5 Sudoeste 0 -- -- 92
2020-01-26 20:00:00 4.6 4 Sudoeste 10 Sudoeste 0 -- -- 92
2020-01-26 19:00:00 5.5 8 Sudoeste 18 Sudoeste 0 -- -- 90
2020-01-26 18:00:00 7.8 12 Sudoeste 23 Sudoeste 0 -- -- 83
2020-01-26 17:00:00 8.3 13 Sudoeste 21 Sudoeste 0 -- -- 83
2020-01-26 16:00:00 8.5 14 Sudoeste 23 Sudoeste 0 -- -- 83
2020-01-26 15:00:00 8.1 11 Sudoeste 21 Sudoeste 0 -- -- 85
2020-01-26 14:00:00 9.7 10 Oeste 18 Oeste 0 -- -- 76
2020-01-26 13:00:00 9.1 11 Noroeste 22 Oeste 0 -- -- 60
2020-01-26 12:00:00 8.3 9 Noroeste 22 Noroeste 0 -- -- 63
2020-01-26 11:00:00 7.4 12 Noroeste 22 Noroeste 0 -- -- 67
2020-01-26 10:00:00 5.4 7 Noroeste 17 Noroeste 0 -- -- 78
2020-01-26 09:00:00 3.7 5 Noroeste 12 Noroeste 0 -- -- 82
2020-01-26 08:00:00 4.5 8 Noroeste 15 Noroeste 0 -- -- 80
2020-01-26 07:00:00 4.2 8 Noroeste 13 Noroeste 0 -- -- 87
2020-01-26 06:00:00 4.4 9 Noroeste 19 Noroeste 0 -- -- 88
2020-01-26 05:00:00 4.2 4 Noroeste 16 Noroeste 0 -- -- 92
2020-01-26 04:00:00 4.2 10 Noroeste 18 Noroeste 0 -- -- 98
2020-01-26 03:00:00 3.8 0 Calma 2 Sudoeste 0 -- -- 97
2020-01-26 02:00:00 4.1 0 Calma 5 Nordeste 0 -- -- 98
2020-01-26 01:00:00 3.8 3 Este 5 Este 0.2 -- -- 97
2020-01-26 00:00:00 4.6 0 Calma 6 Nordeste 0 -- -- 96
2020-01-25 23:00:00 5.1 3 Nordeste 7 Nordeste 0 -- -- 96
2020-01-25 22:00:00 5.4 4 Nordeste 12 Nordeste 0 -- -- 95
2020-01-25 21:00:00 5.3 5 Nordeste 13 Nordeste 0 -- -- 96
2020-01-25 20:00:00 5.6 5 Norte 12 Nordeste 0 -- -- 97
2020-01-25 19:00:00 5.8 6 Norte 10 Norte 0.2 -- -- 97
2020-01-25 18:00:00 6.1 3 Sudoeste 12 Sur 0.6 -- -- 98
2020-01-25 17:00:00 6.5 6 Sur 15 Sur 1 -- -- 97
2020-01-25 16:00:00 6.6 3 Este 6 Nordeste 0.8 -- -- 95
2020-01-25 15:00:00 7 0 Calma 7 Sur 0.8 -- -- 93
2020-01-25 14:00:00 6.6 5 Sur 11 Sudoeste 0.2 -- -- 96
2020-01-25 13:00:00 6.5 5 Sur 11 Sur 0 -- -- 98
2020-01-25 12:00:00 6.1 5 Sur 12 Sur 0.2 -- -- 99
2020-01-25 11:00:00 5.8 7 Sur 13 Sur 0 -- -- 99
2020-01-25 10:00:00 5.6 2 Sudoeste 17 Sur 0 -- -- 99
2020-01-25 09:00:00 5.4 9 Sudeste 20 Sudeste 0.4 -- -- 99
2020-01-25 08:00:00 5.5 7 Sur 17 Sudeste 0.4 -- -- 99
2020-01-25 07:00:00 5.4 6 Sudeste 14 Este 1.2 -- -- 99
2020-01-25 06:00:00 5.2 4 Este 14 Este 0.8 -- -- 98
2020-01-25 05:00:00 5.2 7 Este 18 Este 2 -- -- 98
2020-01-25 04:00:00 5.4 6 Este 17 Este 1.8 -- -- 97
2020-01-25 03:00:00 5.7 5 Este 12 Nordeste 0.6 -- -- 96
2020-01-25 02:00:00 5.6 6 Este 14 Nordeste 0 -- -- 95
2020-01-25 01:00:00 5.5 6 Nordeste 15 Nordeste 0 -- -- 96
2020-01-25 00:00:00 5.1 5 Nordeste 9 Nordeste 0 -- -- 97
2020-01-24 23:00:00 5 4 Nordeste 8 Nordeste 0 -- -- 97
2020-01-24 22:00:00 5.4 4 Nordeste 9 Nordeste 0 -- -- 97
2020-01-24 21:00:00 5.5 5 Nordeste 10 Nordeste 0 -- -- 97
2020-01-24 20:00:00 5.5 5 Nordeste 10 Nordeste 0 -- -- 97
2020-01-24 19:00:00 5.6 4 Nordeste 7 Nordeste 0 -- -- 96
2020-01-24 18:00:00 5.9 3 Este 6 Nordeste 0.2 -- -- 96
2020-01-24 17:00:00 6 4 Nordeste 7 Nordeste 0 -- -- 95
2020-01-24 16:00:00 5.9 4 Nordeste 8 Nordeste 2.6 -- -- 96
2020-01-24 15:00:00 6 0 Calma 4 Sudoeste 1 -- -- 98
2020-01-24 14:00:00 5.8 2 Sudeste 10 Sudeste 0.2 -- -- 99
2020-01-24 13:00:00 5.3 5 Sudeste 16 Sudeste 0.2 -- -- 99
2020-01-24 12:00:00 5 7 Sudeste 17 Este 1 -- -- 98
2020-01-24 11:00:00 5 6 Sudeste 19 Sudeste 0.8 -- -- 98
2020-01-24 10:00:00 5 6 Este 16 Nordeste 0.8 -- -- 98
2020-01-24 09:00:00 4.9 6 Sudeste 18 Este 1.6 -- -- 97
2020-01-24 08:00:00 5.1 8 Sudeste 15 Sudeste 2.8 -- -- 96
2020-01-24 07:00:00 5.4 6 Este 15 Sudeste 1 -- -- 94
2020-01-24 06:00:00 5.8 6 Este 18 Este 0 -- -- 90
2020-01-24 05:00:00 5.8 9 Este 21 Nordeste 0 -- -- 91
2020-01-24 04:00:00 5.8 8 Este 18 Este 0 -- -- 92
2020-01-24 03:00:00 5.6 6 Este 15 Nordeste 0 -- -- 92
2020-01-24 02:00:00 5.5 9 Nordeste 17 Nordeste 0 -- -- 91
2020-01-24 01:00:00 5.6 5 Nordeste 14 Sudeste 0.2 -- -- 91
2020-01-24 00:00:00 5.9 5 Este 12 Este 0 -- -- 90
2020-01-23 23:00:00 6.1 5 Este 13 Este 0.4 -- -- 89
2020-01-23 22:00:00 6.7 6 Este 19 Este 0 -- -- 82
2020-01-23 21:00:00 6.9 8 Este 18 Este 0 -- -- 78
2020-01-23 20:00:00 6.8 6 Este 17 Este 0 -- -- 79
2020-01-23 19:00:00 7.1 8 Nordeste 18 Nordeste 0 -- -- 78
2020-01-23 18:00:00 7.5 6 Este 14 Este 0 -- -- 76
2020-01-23 17:00:00 8.1 6 Este 18 Este 0 -- -- 74
2020-01-23 16:00:00 8.4 7 Este 15 Este 0 -- -- 73
2020-01-23 15:00:00 9.1 6 Sudeste 13 Sudeste 0 -- -- 71
2020-01-23 14:00:00 8.2 5 Sudeste 19 Sudeste 0 -- -- 73
2020-01-23 13:00:00 7.4 5 Este 17 Este 0 -- -- 77
2020-01-23 12:00:00 6 7 Sudeste 18 Este 0 -- -- 82
2020-01-23 11:00:00 4.8 10 Este 25 Nordeste 0 -- -- 84
2020-01-23 10:00:00 3.5 12 Este 25 Este 0 -- -- 88
2020-01-23 09:00:00 3.3 5 Nordeste 10 Este 0 -- -- 89
2020-01-23 08:00:00 3.1 8 Nordeste 13 Nordeste 0 -- -- 89
2020-01-23 07:00:00 3.8 6 Nordeste 13 Este 0 -- -- 86
2020-01-23 06:00:00 3.4 4 Nordeste 8 Nordeste 0 -- -- 88
2020-01-23 05:00:00 2.8 5 Nordeste 11 Nordeste 0 -- -- 89
2020-01-23 04:00:00 3.4 7 Nordeste 15 Nordeste 0 -- -- 87
2020-01-23 03:00:00 4.2 10 Nordeste 19 Nordeste 0 -- -- 84
2020-01-23 02:00:00 4.4 9 Nordeste 17 Nordeste 0 -- -- 84
2020-01-23 01:00:00 4.1 6 Nordeste 14 Nordeste 0 -- -- 86
2020-01-23 00:00:00 4.6 8 Nordeste 17 Nordeste 0 -- -- 85
2020-01-22 23:00:00 4.8 10 Nordeste 19 Nordeste 0 -- -- 84
2020-01-22 22:00:00 4.9 13 Nordeste 28 Nordeste 0 -- -- 81
2020-01-22 21:00:00 4.6 10 Este 27 Este 0 -- -- 84
2020-01-22 20:00:00 5.3 10 Este 20 Este 0.2 -- -- 85
2020-01-22 19:00:00 5.9 5 Nordeste 16 Este 0 -- -- 81
2020-01-22 18:00:00 7.7 3 Este 12 Este 0 -- -- 73
2020-01-22 17:00:00 8.1 4 Este 22 Nordeste 0 -- -- 72
2020-01-22 16:00:00 8.1 7 Este 21 Nordeste 0 -- -- 72
2020-01-22 15:00:00 7.8 8 Este 19 Nordeste 0 -- -- 75
2020-01-22 14:00:00 7.5 10 Este 25 Este 0 -- -- 77
2020-01-22 13:00:00 6.2 10 Este 25 Este 0 -- -- 84
2020-01-22 12:00:00 4.8 9 Este 32 Este 0 -- -- 88
2020-01-22 11:00:00 4.6 15 Este 29 Nordeste 0 -- -- 88
2020-01-22 10:00:00 3.6 16 Nordeste 33 Este 1 -- -- 93
2020-01-22 09:00:00 3.7 15 Nordeste 30 Nordeste 0.2 -- -- 90
2020-01-22 08:00:00 3.8 19 Nordeste 36 Este 0 -- -- 87
2020-01-22 07:00:00 4.1 18 Nordeste 35 Nordeste 0 -- -- 83
2020-01-22 06:00:00 4.1 18 Nordeste 33 Este 0.2 -- -- 83
2020-01-22 05:00:00 4.2 19 Este 39 Este 0 -- -- 84
2020-01-22 04:00:00 4.5 18 Nordeste 45 Nordeste 0 -- -- 81
2020-01-22 03:00:00 4.8 21 Nordeste 34 Nordeste 0 -- -- 81
2020-01-22 02:00:00 5.1 22 Nordeste 39 Nordeste 0 -- -- 80
2020-01-22 01:00:00 5.3 19 Nordeste 37 Nordeste 0 -- -- 79
2020-01-22 00:00:00 5 17 Nordeste 37 Nordeste 0 -- -- 82
2020-01-21 23:00:00 4.9 16 Nordeste 43 Este 0 -- -- 84
2020-01-21 22:00:00 4.8 24 Nordeste 52 Nordeste 0 -- -- 84
2020-01-21 21:00:00 4.7 29 Nordeste 49 Este 0 -- -- 84
2020-01-21 20:00:00 4.9 27 Este 52 Este 0 -- -- 83
2020-01-21 19:00:00 4.9 17 Este 42 Este 0.2 -- -- 84
2020-01-21 18:00:00 4.9 17 Nordeste 37 Nordeste 1 -- -- 88
2020-01-21 17:00:00 4.4 22 Nordeste 52 Nordeste 1.8 -- -- 90
2020-01-21 16:00:00 6.2 31 Nordeste 52 Nordeste 0 -- -- 70
2020-01-21 15:00:00 6.8 23 Nordeste 49 Este 0 -- -- 70
2020-01-21 14:00:00 6.2 27 Nordeste 51 Este 0 -- -- 71
2020-01-21 13:00:00 5.7 26 Nordeste 58 Este 0 -- -- 72
2020-01-21 12:00:00 5.7 29 Nordeste 58 Nordeste 0.2 -- -- 74
2020-01-21 11:00:00 4.7 22 Nordeste 49 Nordeste 0.6 -- -- 81
2020-01-21 10:00:00 4.8 35 Nordeste 63 Nordeste 0 -- -- 75
2020-01-21 09:00:00 4.5 26 Nordeste 57 Nordeste 0 -- -- 72
2020-01-21 08:00:00 4 37 Nordeste 62 Nordeste 0 -- -- 74
2020-01-21 07:00:00 4.5 33 Nordeste 53 Este 0 -- -- 68
2020-01-21 06:00:00 4.5 31 Nordeste 53 Nordeste 0 -- -- 67
2020-01-21 05:00:00 3.8 24 Nordeste 57 Nordeste 0.2 -- -- 74
2020-01-21 04:00:00 3.8 31 Nordeste 58 Este 0 -- -- 72
2020-01-21 03:00:00 3.8 26 Nordeste 57 Nordeste 0 -- -- 72
2020-01-21 02:00:00 4.1 33 Nordeste 56 Nordeste 0 -- -- 70
2020-01-21 01:00:00 4.6 36 Nordeste 64 Nordeste 0 -- -- 65
2020-01-21 00:00:00 4 26 Nordeste 60 Nordeste 0 -- -- 67
2020-01-20 23:00:00 4.6 26 Nordeste 65 Nordeste 0 -- -- 59
2020-01-20 22:00:00 4.6 33 Nordeste 60 Nordeste 0 -- -- 60
2020-01-20 21:00:00 4.5 31 Nordeste 61 Este 0 -- -- 60
2020-01-20 20:00:00 4.3 31 Nordeste 64 Este 0 -- -- 63
2020-01-20 19:00:00 4.2 31 Nordeste 62 Nordeste 0 -- -- 63
2020-01-20 18:00:00 4.8 37 Nordeste 64 Nordeste 0 -- -- 56
2020-01-20 17:00:00 5.4 28 Nordeste 62 Nordeste 0 -- -- 52
2020-01-20 16:00:00 5.1 28 Nordeste 53 Nordeste 0 -- -- 50
2020-01-20 15:00:00 4.8 23 Nordeste 47 Nordeste 0 -- -- 49
2020-01-20 14:00:00 5.2 22 Nordeste 45 Nordeste 0 -- -- 45
2020-01-20 13:00:00 5.7 16 Este 51 Este 0 -- -- 39
2020-01-20 12:00:00 6.3 26 Nordeste 49 Nordeste 0 -- -- 34
2020-01-20 11:00:00 4.2 18 Nordeste 34 Nordeste 0 -- -- 31
2020-01-20 10:00:00 2.3 12 Nordeste 23 Norte 0 -- -- 37
2020-01-20 09:00:00 1.2 13 Nordeste 20 Nordeste 0 -- -- 45
2020-01-20 08:00:00 0.6 11 Nordeste 21 Nordeste 0 -- -- 42
2020-01-20 07:00:00 0.7 12 Nordeste 26 Nordeste 0 -- -- 43
2020-01-20 06:00:00 1.5 15 Nordeste 30 Nordeste 0 -- -- 41
2020-01-20 05:00:00 1.5 18 Norte 31 Nordeste 0 -- -- 43
2020-01-20 04:00:00 1.4 16 Nordeste 30 Norte 0 -- -- 45
2020-01-20 03:00:00 1.7 14 Nordeste 33 Nordeste 0 -- -- 44
2020-01-20 02:00:00 1.7 18 Nordeste 37 Norte 0 -- -- 46
2020-01-20 01:00:00 2 22 Norte 43 Nordeste 0 -- -- 44
2020-01-20 00:00:00 2.1 24 Nordeste 40 Norte 0 -- -- 48
2020-01-19 23:00:00 2.7 22 Nordeste 42 Nordeste 0 -- -- 46
2020-01-19 22:00:00 2.6 24 Nordeste 50 Nordeste 0 -- -- 46
2020-01-19 21:00:00 2.7 29 Norte 51 Nordeste 0 -- -- 47
2020-01-19 20:00:00 3.2 25 Norte 46 Nordeste 0 -- -- 48
2020-01-19 19:00:00 4.7 22 Norte 42 Nordeste 0 -- -- 45
2020-01-19 18:00:00 6.1 25 Nordeste 58 Nordeste 0 -- -- 41
2020-01-19 17:00:00 7.5 28 Nordeste 64 Norte 0 -- -- 36
2020-01-19 16:00:00 8.3 31 Nordeste 70 Nordeste 0 -- -- 33
2020-01-19 15:00:00 7.8 28 Nordeste 54 Norte 0 -- -- 48
2020-01-19 14:00:00 7.3 32 Norte 55 Norte 0 -- -- 54
2020-01-19 13:00:00 6.9 28 Nordeste 49 Nordeste 0 -- -- 57
2020-01-19 12:00:00 7 33 Nordeste 58 Nordeste 0 -- -- 62
2020-01-19 11:00:00 5.8 29 Norte 47 Norte 0 -- -- 70
2020-01-19 10:00:00 5.6 22 Norte 45 Norte 0 -- -- 70
2020-01-19 09:00:00 4.7 20 Norte 48 Nordeste 0 -- -- 76
2020-01-19 08:00:00 5.4 20 Norte 36 Norte 0 -- -- 72
2020-01-19 07:00:00 5.4 13 Norte 23 Norte 0 -- -- 71
2020-01-19 06:00:00 4.8 14 Norte 32 Norte 0 -- -- 79
2020-01-19 05:00:00 4.7 18 Norte 35 Norte 0 -- -- 82
2020-01-19 04:00:00 4.8 12 Norte 27 Norte 0 -- -- 84
2020-01-19 03:00:00 5.9 12 Norte 38 Norte 0 -- -- 74
2020-01-19 02:00:00 5.5 10 Norte 24 Noroeste 0 -- -- 77
2020-01-19 01:00:00 6.1 12 Norte 42 Noroeste 0 -- -- 76
2020-01-19 00:00:00 6.3 25 Noroeste 50 Noroeste 0 -- -- 74
2020-01-18 23:00:00 6.3 9 Noroeste 29 Noroeste 0.2 -- -- 84
2020-01-18 22:00:00 6.4 5 Sudeste 29 Oeste 0 -- -- 92
2020-01-18 21:00:00 6.3 15 Oeste 27 Noroeste 0.4 -- -- 99
2020-01-18 20:00:00 5.9 3 Sudoeste 13 Norte 0 -- -- 99
2020-01-18 19:00:00 6.2 4 Norte 7 Norte 0 -- -- 98
2020-01-18 18:00:00 6.2 0 Calma 5 Norte 0.2 -- -- 99
2020-01-18 17:00:00 6.1 0 Calma 8 Sudoeste 0 -- -- 98
2020-01-18 16:00:00 6.1 3 Sudoeste 10 Sur 0 -- -- 98
2020-01-18 15:00:00 6 3 Sudoeste 7 Oeste 0 -- -- 97
2020-01-18 14:00:00 5.6 2 Oeste 6 Sudoeste 0.2 -- -- 97
2020-01-18 13:00:00 5.4 3 Sudoeste 6 Norte 0.4 -- -- 97
2020-01-18 12:00:00 4.9 3 Norte 6 Norte 0.4 -- -- 96
2020-01-18 11:00:00 4.6 4 Nordeste 6 Nordeste 0.6 -- -- 96
2020-01-18 10:00:00 4.2 4 Nordeste 9 Este 1 -- -- 95
2020-01-18 09:00:00 4 4 Nordeste 8 Nordeste 0.2 -- -- 93
2020-01-18 08:00:00 3.8 4 Este 13 Sudeste 0.2 -- -- 91
2020-01-18 07:00:00 4.4 7 Sudeste 13 Este 0 -- -- 84
2020-01-18 06:00:00 5.3 7 Sudeste 13 Sudeste 0 -- -- 74
2020-01-18 05:00:00 4.8 5 Nordeste 9 Este 0 -- -- 75
2020-01-18 04:00:00 4.7 4 Nordeste 8 Nordeste 0 -- -- 78
2020-01-18 03:00:00 4.3 4 Este 6 Este 0 -- -- 80
2020-01-18 02:00:00 4.7 0 Calma 4 Sudeste 0 -- -- 79
2020-01-18 01:00:00 5.1 0 Calma 15 Nordeste 0 -- -- 77
2020-01-18 00:00:00 5.7 7 Nordeste 11 Nordeste 0 -- -- 74
2020-01-17 23:00:00 5.3 3 Este 7 Este 0 -- -- 76
2020-01-17 22:00:00 5.6 3 Nordeste 7 Norte 0 -- -- 75
2020-01-17 21:00:00 6.3 3 Nordeste 10 Norte 0 -- -- 72
2020-01-17 20:00:00 6.1 5 Norte 12 Norte 0 -- -- 73
2020-01-17 19:00:00 7.7 2 Oeste 25 Sudoeste 0 -- -- 78
2020-01-17 18:00:00 9.6 4 Oeste 23 Sudoeste 0 -- -- 74
2020-01-17 17:00:00 11.4 10 Sudoeste 21 Sudoeste 0 -- -- 70
2020-01-17 16:00:00 11.6 14 Sudoeste 27 Oeste 0 -- -- 69
2020-01-17 15:00:00 10.7 12 Oeste 28 Oeste 0 -- -- 63
2020-01-17 14:00:00 10.3 13 Noroeste 27 Norte 0 -- -- 61
2020-01-17 13:00:00 8.9 10 Noroeste 27 Noroeste 0 -- -- 69
2020-01-17 12:00:00 9 10 Oeste 27 Sudoeste 0 -- -- 80
2020-01-17 11:00:00 8.2 12 Oeste 24 Oeste 0 -- -- 84
2020-01-17 10:00:00 6.2 10 Oeste 18 Oeste 0 -- -- 92
2020-01-17 09:00:00 4.8 7 Oeste 13 Oeste 0 -- -- 95
2020-01-17 08:00:00 4.2 0 Calma 10 Oeste 0 -- -- 95
2020-01-17 07:00:00 4.2 4 Oeste 11 Oeste 0 -- -- 95
2020-01-17 06:00:00 4.4 6 Oeste 14 Sudoeste 0 -- -- 95
2020-01-17 05:00:00 4.7 4 Oeste 13 Sudoeste 0 -- -- 92
2020-01-17 04:00:00 5.5 9 Sudoeste 18 Sudoeste 0 -- -- 89
2020-01-17 03:00:00 6.1 10 Sudoeste 30 Oeste 0 -- -- 84
2020-01-17 02:00:00 7.2 18 Oeste 34 Oeste 0 -- -- 77
2020-01-17 01:00:00 7.5 10 Oeste 28 Oeste 0 -- -- 74
2020-01-17 00:00:00 7.4 12 Sudoeste 24 Oeste 0 -- -- 78
2020-01-16 23:00:00 8.3 10 Sudoeste 18 Sudoeste 0 -- -- 77
2020-01-16 22:00:00 8.2 4 Sudoeste 16 Oeste 0 -- -- 80
2020-01-16 21:00:00 8.3 7 Sudoeste 14 Sudoeste 0 -- -- 82
2020-01-16 20:00:00 8.1 4 Sur 13 Sur 0 -- -- 87
2020-01-16 19:00:00 7.5 0 Calma 3 Sur 0 -- -- 88
2020-01-16 18:00:00 8.4 0 Calma 4 Sur 0 -- -- 84
2020-01-16 17:00:00 10.1 5 Sudoeste 18 Sudoeste 0 -- -- 79
2020-01-16 16:00:00 11.2 15 Sudoeste 24 Sur 0 -- -- 73
2020-01-16 15:00:00 10.6 9 Sudoeste 15 Sur 0 -- -- 80
2020-01-16 14:00:00 9.1 3 Sur 9 Sudoeste 0.2 -- -- 90
2020-01-16 13:00:00 6.9 0 Calma 7 Este 0 -- -- 95
2020-01-16 12:00:00 6.5 4 Este 10 Este 0 -- -- 96
2020-01-16 11:00:00 6.4 5 Este 13 Nordeste 0 -- -- 96
2020-01-16 10:00:00 6.5 4 Este 9 Este 0 -- -- 96
2020-01-16 09:00:00 6.4 2 Nordeste 8 Nordeste 0 -- -- 96
2020-01-16 08:00:00 6.2 5 Nordeste 9 Nordeste 0 -- -- 95
2020-01-16 07:00:00 6.2 4 Nordeste 10 Este 0 -- -- 93
2020-01-16 06:00:00 6.1 5 Este 10 Este 0 -- -- 92
2020-01-16 05:00:00 6 4 Este 8 Nordeste 0 -- -- 92
2020-01-16 04:00:00 5.9 5 Nordeste 10 Nordeste 0 -- -- 93
2020-01-16 03:00:00 5.8 5 Nordeste 11 Nordeste 0 -- -- 92
2020-01-16 02:00:00 5.8 5 Nordeste 9 Nordeste 0 -- -- 91
2020-01-16 01:00:00 5.8 5 Nordeste 9 Nordeste 0 -- -- 91
2020-01-16 00:00:00 5.8 6 Nordeste 10 Nordeste 0 -- -- 90
2020-01-15 23:00:00 5.8 4 Nordeste 10 Nordeste 0 -- -- 91
2020-01-15 22:00:00 5.7 6 Nordeste 9 Este 0 -- -- 89
2020-01-15 21:00:00 5.7 4 Este 8 Este 0 -- -- 89
2020-01-15 20:00:00 5.7 3 Este 8 Este 0 -- -- 89
2020-01-15 19:00:00 5.7 4 Este 7 Sudeste 0 -- -- 88
2020-01-15 18:00:00 6 3 Este 6 Este 0 -- -- 87
2020-01-15 17:00:00 6.2 2 Nordeste 7 Sudeste 0 -- -- 87
2020-01-15 16:00:00 5.9 2 Este 7 Sudeste 0 -- -- 87
2020-01-15 15:00:00 5.3 5 Este 10 Este 0 -- -- 89
2020-01-15 14:00:00 4.9 4 Este 11 Este 0 -- -- 90
2020-01-15 13:00:00 4.7 5 Este 9 Nordeste 0 -- -- 89
2020-01-15 12:00:00 4.7 4 Sudeste 10 Este 0 -- -- 90
2020-01-15 11:00:00 4.3 5 Este 9 Este 0 -- -- 91
2020-01-15 10:00:00 3.6 4 Este 9 Nordeste 0 -- -- 93
2020-01-15 09:00:00 3.1 3 Este 9 Este 0 -- -- 92
2020-01-15 08:00:00 3.3 5 Sudeste 10 Este 0 -- -- 90
2020-01-15 07:00:00 3.3 5 Este 7 Este 0 -- -- 91
2020-01-15 06:00:00 3.2 4 Este 7 Sur 0 -- -- 92
2020-01-15 05:00:00 3.5 7 Sudeste 12 Sudeste 0 -- -- 92
2020-01-15 04:00:00 3.5 4 Nordeste 7 Norte 0 -- -- 92
2020-01-15 03:00:00 3.6 3 Este 6 Nordeste 0 -- -- 92
2020-01-15 02:00:00 3.7 4 Nordeste 8 Nordeste 0.2 -- -- 89
2020-01-15 01:00:00 3.8 0 Calma 6 Este 0 -- -- 86
2020-01-15 00:00:00 3.7 3 Este 5 Este 0 -- -- 83
2020-01-14 23:00:00 3.5 3 Este 8 Nordeste 0 -- -- 83
2020-01-14 22:00:00 3 3 Nordeste 5 Nordeste 0 -- -- 86
2020-01-14 21:00:00 2.9 4 Nordeste 6 Nordeste 0 -- -- 85
2020-01-14 20:00:00 4.3 0 Calma 2 Sudoeste 0 -- -- 77
2020-01-14 19:00:00 5.3 0 Calma 6 Sudoeste 0 -- -- 76
2020-01-14 18:00:00 5.9 3 Sudoeste 9 Sudoeste 0 -- -- 71
2020-01-14 17:00:00 7.8 4 Sudoeste 12 Sudoeste 0 -- -- 65
2020-01-14 16:00:00 7.6 5 Sudoeste 10 Sudoeste 0 -- -- 65
2020-01-14 15:00:00 6.6 6 Sudoeste 15 Sudoeste 0 -- -- 69
2020-01-14 14:00:00 5.8 4 Sudoeste 10 Sur 0 -- -- 72
2020-01-14 13:00:00 5 4 Sur 9 Sur 0 -- -- 76
2020-01-14 12:00:00 3.4 5 Este 12 Este 0 -- -- 83
2020-01-14 11:00:00 1.5 6 Este 10 Este 0 -- -- 89
2020-01-14 10:00:00 -1 4 Este 9 Nordeste 0 -- -- 96
2020-01-14 09:00:00 -2.5 5 Este 10 Nordeste 0 -- -- 94
2020-01-14 08:00:00 -2.3 7 Nordeste 12 Nordeste 0 -- -- 94
2020-01-14 07:00:00 -2.1 5 Este 8 Este 0 -- -- 94
2020-01-14 06:00:00 -2.2 6 Este 9 Este 0 -- -- 93
2020-01-14 05:00:00 -2 6 Este 10 Nordeste 0 -- -- 92
2020-01-14 04:00:00 -1.5 6 Nordeste 9 Nordeste 0 -- -- 92
2020-01-14 03:00:00 -1.3 6 Este 9 Nordeste 0 -- -- 91
2020-01-14 02:00:00 -0.9 6 Nordeste 9 Norte 0 -- -- 91
2020-01-14 01:00:00 -0.5 4 Nordeste 7 Este 0 -- -- 91
2020-01-14 00:00:00 -0.3 5 Este 8 Este 0 -- -- 88
2020-01-13 23:00:00 0 3 Este 4 Sudeste 0 -- -- 88
2020-01-13 22:00:00 0.8 3 Nordeste 6 Nordeste 0 -- -- 87
2020-01-13 21:00:00 1.2 3 Nordeste 4 Nordeste 0 -- -- 86
2020-01-13 20:00:00 2 2 Oeste 4 Oeste 0 -- -- 80
2020-01-13 19:00:00 3.4 2 Oeste 8 Sudoeste 0 -- -- 76
2020-01-13 18:00:00 5.4 3 Sudoeste 10 Sudoeste 0 -- -- 70
2020-01-13 17:00:00 6.8 7 Sudoeste 13 Sudoeste 0 -- -- 65
2020-01-13 16:00:00 7.7 8 Sudoeste 14 Sur 0 -- -- 60
2020-01-13 15:00:00 6.9 8 Sudoeste 14 Sudoeste 0 -- -- 63
2020-01-13 14:00:00 6.7 7 Sudoeste 12 Sudoeste 0 -- -- 64
2020-01-13 13:00:00 5.9 5 Sur 10 Sudoeste 0 -- -- 67
2020-01-13 12:00:00 3.7 0 Calma 6 Sudeste 0 -- -- 73
2020-01-13 11:00:00 2.2 3 Este 5 Sudeste 0 -- -- 76
2020-01-13 10:00:00 -0.2 4 Este 6 Este 0 -- -- 79
2020-01-13 09:00:00 -1.6 3 Este 6 Nordeste 0 -- -- 82
2020-01-13 08:00:00 -1.5 4 Nordeste 5 Este 0 -- -- 81
2020-01-13 07:00:00 -1.2 3 Nordeste 7 Este 0 -- -- 83
2020-01-13 06:00:00 -0.9 6 Este 7 Este 0 -- -- 80
2020-01-13 05:00:00 -0.4 4 Este 6 Este 0 -- -- 76
2020-01-13 04:00:00 -0.1 5 Nordeste 8 Este 0 -- -- 73
2020-01-13 03:00:00 -0.2 4 Este 6 Nordeste 0 -- -- 76
2020-01-13 02:00:00 0.2 6 Este 7 Este 0 -- -- 77
2020-01-13 01:00:00 0.5 4 Nordeste 7 Nordeste 0 -- -- 75
2020-01-13 00:00:00 0.5 4 Nordeste 6 Nordeste 0 -- -- 77
2020-01-12 23:00:00 1.2 4 Nordeste 6 Nordeste 0 -- -- 75
2020-01-12 22:00:00 1.7 3 Nordeste 4 Nordeste 0 -- -- 76
2020-01-12 21:00:00 2.4 0 Calma 2 Norte 0 -- -- 73
2020-01-12 20:00:00 2.9 0 Calma 2 Sudoeste 0 -- -- 69
2020-01-12 19:00:00 4.7 2 Sudoeste 5 Sudoeste 0 -- -- 62
2020-01-12 18:00:00 8.1 4 Sudoeste 10 Sudoeste 0 -- -- 51
2020-01-12 17:00:00 10.6 6 Sudoeste 11 Sudoeste 0 -- -- 40
2020-01-12 16:00:00 10.9 5 Sudoeste 12 Sudoeste 0 -- -- 41
2020-01-12 15:00:00 9.7 4 Sur 10 Sur 0 -- -- 48
2020-01-12 14:00:00 9.6 4 Sur 10 Sudeste 0 -- -- 48
2020-01-12 13:00:00 8.2 5 Sur 10 Sur 0 -- -- 52
2020-01-12 12:00:00 6.8 2 Este 8 Sudeste 0 -- -- 54
2020-01-12 11:00:00 5 0 Calma 8 Este 0 -- -- 56
2020-01-12 10:00:00 0.6 5 Este 12 Nordeste 0 -- -- 67
2020-01-12 09:00:00 -1.7 7 Nordeste 10 Nordeste 0 -- -- 74
2020-01-12 08:00:00 -1.4 6 Este 11 Este 0 -- -- 73
2020-01-12 07:00:00 -1.4 6 Este 10 Este 0 -- -- 74
2020-01-12 06:00:00 -0.7 7 Este 9 Este 0 -- -- 74
2020-01-12 05:00:00 -0.7 6 Este 12 Este 0 -- -- 67
2020-01-12 04:00:00 -0.2 7 Este 9 Este 0 -- -- 66
2020-01-12 03:00:00 1.2 3 Nordeste 9 Nordeste 0 -- -- 58
2020-01-12 02:00:00 0.4 6 Nordeste 8 Nordeste 0 -- -- 64
2020-01-12 01:00:00 0.5 4 Nordeste 9 Nordeste 0 -- -- 65
2020-01-12 00:00:00 1.4 6 Nordeste 10 Nordeste 0 -- -- 64
2020-01-11 23:00:00 1.3 5 Nordeste 7 Nordeste 0 -- -- 65
2020-01-11 22:00:00 2.4 3 Norte 4 Norte 0 -- -- 61
2020-01-11 21:00:00 4.1 4 Sudoeste 9 Sudoeste 0 -- -- 57
2020-01-11 20:00:00 4 3 Oeste 6 Sudoeste 0 -- -- 50
2020-01-11 19:00:00 5.8 4 Sudoeste 6 Sudoeste 0 -- -- 47
2020-01-11 18:00:00 9.4 3 Sudoeste 8 Sur 0 -- -- 37
2020-01-11 17:00:00 11.1 5 Sur 11 Sur 0 -- -- 30
2020-01-11 16:00:00 10.9 5 Sudeste 13 Sur 0 -- -- 33
2020-01-11 15:00:00 11 4 Sur 9 Sudeste 0 -- -- 34
2020-01-11 14:00:00 9.5 4 Este 13 Este 0 -- -- 37
2020-01-11 13:00:00 8.9 5 Este 16 Este 0 -- -- 40
2020-01-11 12:00:00 7.6 4 Este 9 Este 0 -- -- 48
2020-01-11 11:00:00 5.4 0 Calma 6 Norte 0 -- -- 57
2020-01-11 10:00:00 2 3 Nordeste 6 Nordeste 0 -- -- 69
2020-01-11 09:00:00 -1.1 5 Nordeste 6 Nordeste 0 -- -- 78
2020-01-11 08:00:00 -0.9 2 Noroeste 4 Noroeste 0 -- -- 84
2020-01-11 07:00:00 -1 0 Calma 4 Noroeste 0 -- -- 79
2020-01-11 06:00:00 -0.9 2 Noroeste 4 Este 0 -- -- 80
2020-01-11 05:00:00 -0.4 2 Nordeste 3 Nordeste 0 -- -- 80
2020-01-11 04:00:00 0.2 0 Calma 3 Nordeste 0 -- -- 80
2020-01-11 03:00:00 0.8 0 Calma 5 Noroeste 0 -- -- 74
2020-01-11 02:00:00 2 2 Norte 8 Norte 0 -- -- 70
2020-01-11 01:00:00 2.9 3 Este 12 Nordeste 0 -- -- 69
2020-01-11 00:00:00 3.5 6 Nordeste 10 Nordeste 0 -- -- 67
2020-01-10 23:00:00 4.7 8 Nordeste 16 Nordeste 0 -- -- 63
2020-01-10 22:00:00 5.5 11 Norte 17 Nordeste 0 -- -- 60
2020-01-10 21:00:00 5.7 10 Norte 22 Norte 0 -- -- 60
2020-01-10 20:00:00 5.7 10 Norte 19 Norte 0 -- -- 60
2020-01-10 19:00:00 6.4 9 Norte 22 Nordeste 0 -- -- 58
2020-01-10 18:00:00 8 10 Nordeste 18 Norte 0 -- -- 53
2020-01-10 17:00:00 10.3 7 Este 22 Este 0 -- -- 43
2020-01-10 16:00:00 10.6 8 Nordeste 25 Norte 0 -- -- 42
2020-01-10 15:00:00 10 15 Norte 32 Norte 0 -- -- 45
2020-01-10 14:00:00 9.2 17 Norte 35 Norte 0 -- -- 46
2020-01-10 13:00:00 9.1 16 Norte 29 Noroeste 0 -- -- 47
2020-01-10 12:00:00 8.3 12 Norte 28 Nordeste 0 -- -- 52
2020-01-10 11:00:00 7.3 16 Nordeste 27 Nordeste 0 -- -- 58
2020-01-10 10:00:00 5.4 15 Norte 23 Nordeste 0 -- -- 68
2020-01-10 09:00:00 4 12 Norte 28 Norte 0 -- -- 72
2020-01-10 08:00:00 4.6 18 Norte 34 Norte 0 -- -- 67
2020-01-10 07:00:00 4.9 17 Norte 29 Norte 0 -- -- 65
2020-01-10 06:00:00 5.5 18 Norte 41 Norte 0 -- -- 62
2020-01-10 05:00:00 5.9 8 Norte 35 Norte 0 -- -- 59
2020-01-10 04:00:00 6 13 Noroeste 37 Noroeste 0 -- -- 65
2020-01-10 03:00:00 6.7 17 Norte 34 Norte 0 -- -- 64
2020-01-10 02:00:00 7.6 18 Norte 34 Noroeste 0 -- -- 60
2020-01-10 01:00:00 8.5 14 Noroeste 32 Noroeste 0 -- -- 63
2020-01-10 00:00:00 9 20 Noroeste 33 Noroeste 0 -- -- 67
2020-01-09 23:00:00 8.9 9 Noroeste 21 Oeste 0 -- -- 74
2020-01-09 22:00:00 8.1 5 Oeste 28 Oeste 0 -- -- 75
2020-01-09 21:00:00 9.6 9 Sudoeste 37 Noroeste 0 -- -- 69
2020-01-09 20:00:00 8.2 4 Sudeste 13 Sudoeste 0 -- -- 76
2020-01-09 19:00:00 8.2 4 Sudoeste 13 Sudoeste 0 -- -- 76
2020-01-09 18:00:00 9.3 8 Sudoeste 19 Sudoeste 0 -- -- 71
2020-01-09 17:00:00 11.7 9 Sudoeste 17 Sudoeste 0 -- -- 60
2020-01-09 16:00:00 12.4 10 Sudoeste 22 Sudoeste 0 -- -- 58
2020-01-09 15:00:00 12.5 6 Sudoeste 14 Sudoeste 0 -- -- 58
2020-01-09 14:00:00 12.1 6 Sudoeste 14 Sudoeste 0 -- -- 57
2020-01-09 13:00:00 11.1 5 Sudoeste 10 Sur 0 -- -- 59
2020-01-09 12:00:00 9.8 4 Sudoeste 13 Sur 0 -- -- 63
2020-01-09 11:00:00 9.2 4 Sur 9 Sur 0 -- -- 65
2020-01-09 10:00:00 5.2 4 Nordeste 9 Nordeste 0 -- -- 74
2020-01-09 09:00:00 2.8 5 Nordeste 8 Este 0 -- -- 80
2020-01-09 08:00:00 2.7 3 Nordeste 6 Norte 0 -- -- 80
2020-01-09 07:00:00 3.1 5 Nordeste 9 Este 0 -- -- 78
2020-01-09 06:00:00 3.4 7 Este 12 Este 0 -- -- 76
2020-01-09 05:00:00 3.5 4 Este 10 Sudeste 0 -- -- 75
2020-01-09 04:00:00 3.4 4 Nordeste 5 Nordeste 0 -- -- 75
2020-01-09 03:00:00 3.9 2 Norte 4 Este 0 -- -- 78
2020-01-09 02:00:00 4.2 3 Este 5 Este 0 -- -- 73
2020-01-09 01:00:00 4.7 2 Nordeste 3 Este 0 -- -- 70
2020-01-09 00:00:00 5.3 0 Calma 5 Sur 0 -- -- 68
2020-01-08 23:00:00 6.5 3 Sur 11 Sudoeste 0 -- -- 64
2020-01-08 22:00:00 6.3 3 Sudeste 4 Este 0 -- -- 66
2020-01-08 21:00:00 7.2 4 Nordeste 5 Nordeste 0 -- -- 65
2020-01-08 20:00:00 7.6 3 Nordeste 5 Norte 0 -- -- 66
2020-01-08 19:00:00 9.1 0 Calma 4 Sur 0 -- -- 60
2020-01-08 18:00:00 12.8 0 Calma 6 Sur 0 -- -- 49
2020-01-08 17:00:00 14.9 4 Sudoeste 9 Sudeste 0 -- -- 43
2020-01-08 16:00:00 14.2 6 Sudeste 12 Sudeste 0 -- -- 45
2020-01-08 15:00:00 14.5 5 Sur 10 Sur 0 -- -- 45
2020-01-08 14:00:00 13.2 6 Sudeste 12 Sur 0 -- -- 48
2020-01-08 13:00:00 14.2 3 Sur 6 Sur 0 -- -- 39
2020-01-08 12:00:00 11.3 0 Calma 5 Este 0 -- -- 50
2020-01-08 11:00:00 8.7 3 Este 10 Este 0 -- -- 55
2020-01-08 10:00:00 5.2 5 Este 8 Este 0 -- -- 57
2020-01-08 09:00:00 3.4 4 Este 6 Nordeste 0 -- -- 61
2020-01-08 08:00:00 3.1 5 Este 8 Este 0 -- -- 68
2020-01-08 07:00:00 3.3 3 Este 6 Este 0 -- -- 74
2020-01-08 06:00:00 3.1 6 Este 7 Este 0 -- -- 74
2020-01-08 05:00:00 3.7 3 Este 8 Este 0 -- -- 71
2020-01-08 04:00:00 3.6 6 Este 10 Nordeste 0 -- -- 71
2020-01-08 03:00:00 5.2 4 Este 14 Este 0 -- -- 69
2020-01-08 02:00:00 4.7 11 Este 15 Este 0 -- -- 70
2020-01-08 01:00:00 5.6 2 Este 10 Este 0 -- -- 61
2020-01-08 00:00:00 5 0 Calma 9 Nordeste 0 -- -- 59
2020-01-07 23:00:00 4.7 7 Nordeste 9 Nordeste 0 -- -- 68
2020-01-07 22:00:00 5.4 0 Calma 4 Este 0 -- -- 74
2020-01-07 21:00:00 5.7 3 Norte 6 Norte 0 -- -- 73
2020-01-07 20:00:00 6.5 0 Calma 4 Nordeste 0 -- -- 70
2020-01-07 19:00:00 8.3 2 Oeste 5 Oeste 0 -- -- 61
2020-01-07 18:00:00 11.7 4 Sudoeste 8 Oeste 0 -- -- 54
2020-01-07 17:00:00 14.6 2 Sur 8 Sur 0 -- -- 46
2020-01-07 16:00:00 14.2 3 Sudeste 7 Sudeste 0 -- -- 48
2020-01-07 15:00:00 13.4 3 Sur 8 Sudoeste 0 -- -- 48
2020-01-07 14:00:00 13.5 3 Sur 8 Sur 0 -- -- 46
2020-01-07 13:00:00 11.9 3 Sudeste 7 Sudeste 0 -- -- 47
2020-01-07 12:00:00 10.4 2 Sudeste 6 Sur 0 -- -- 52
2020-01-07 11:00:00 9.1 0 Calma 5 Este 0 -- -- 48
2020-01-07 10:00:00 4.6 3 Este 7 Este 0 -- -- 64
2020-01-07 09:00:00 1.9 0 Calma 5 Nordeste 0 -- -- 65
2020-01-07 08:00:00 2.2 5 Este 8 Este 0 -- -- 63
2020-01-07 07:00:00 2.5 0 Calma 8 Sudeste 0 -- -- 63
2020-01-07 06:00:00 2.7 6 Este 13 Este 0 -- -- 59
2020-01-07 05:00:00 2.8 6 Nordeste 10 Nordeste 0 -- -- 62
2020-01-07 04:00:00 3 3 Este 6 Este 0 -- -- 63
2020-01-07 03:00:00 3.7 5 Nordeste 7 Nordeste 0 -- -- 62
2020-01-07 02:00:00 3.8 4 Nordeste 9 Nordeste 0 -- -- 69
2020-01-07 01:00:00 4 4 Nordeste 10 Nordeste 0 -- -- 68
2020-01-07 00:00:00 4.9 8 Nordeste 11 Nordeste 0 -- -- 68
2020-01-06 23:00:00 4.1 0 Calma 5 Nordeste 0 -- -- 78
2020-01-06 22:00:00 4.2 0 Calma 4 Sur 0 -- -- 79
2020-01-06 21:00:00 5 2 Sur 4 Sur 0 -- -- 78
2020-01-06 20:00:00 5.8 0 Calma 3 Norte 0 -- -- 76
2020-01-06 19:00:00 7.4 2 Oeste 6 Sudoeste 0 -- -- 70
2020-01-06 18:00:00 10 4 Sudoeste 9 Sudoeste 0 -- -- 62
2020-01-06 17:00:00 13.2 4 Sudoeste 10 Sudoeste 0 -- -- 49
2020-01-06 16:00:00 13.1 6 Sudoeste 12 Sudoeste 0 -- -- 49
2020-01-06 15:00:00 12.5 7 Sur 11 Sur 0 -- -- 48
2020-01-06 14:00:00 13 5 Sudoeste 9 Sudoeste 0 -- -- 46
2020-01-06 13:00:00 12.3 5 Sur 8 Sur 0 -- -- 47
2020-01-06 12:00:00 11.4 0 Calma 4 Sudeste 0 -- -- 44
2020-01-06 11:00:00 8.3 2 Este 6 Este 0 -- -- 48
2020-01-06 10:00:00 4.6 2 Este 4 Nordeste 0 -- -- 61